Regional Weather Roundup
Issued by NWS Huntsville, AL

Home | Current Version | Previous Version | Text Only | Print | Product List | Glossary On
Versions: 1 2 3 4 5 6 7 8 9 10 11 12 13 14 15 16 17 18 19 20 21 22 23 24 25 26 27 28 29 30 31 32 33 34 35 36 37 38 39 40 41 42 43 44 45 46 47 48 49 50
000
ASUS44 KHUN 221824
RWRHUN

WEATHER ROUNDUP FOR THE TENNESSEE VALLEY
NATIONAL WEATHER SERVICE HUNTSVILLE AL
100 PM CDT TUE JUL 22 2014

ALZ001>004-221900-
NORTHWEST ALABAMA

CITY           SKY/WX    TMP DP  RH WIND       PRES   REMARKS
COURTLAND HCN    N/A     82 N/A N/A SE3         N/A
RUSSELLVILLE     N/A     84 N/A N/A MISG        N/A
SHOALS AIRPORT PTSUNNY   87  69  54 VRB3      30.10F HX  91
6HR MIN TEMP:  72; 6HR MAX TEMP:  87;

SHOALS TVA RES   N/A     84 N/A N/A MISG        N/A
$$

ALZ005>007-016-221900-
NORTH CENTRAL ALABAMA

CITY           SKY/WX    TMP DP  RH WIND       PRES   REMARKS
CULLMAN AG STN   N/A     82 N/A N/A SE3         N/A
DECATUR AP     PTSUNNY   83  73  72 S10       30.11S
6HR MIN TEMP:  73; 6HR MAX TEMP:  86;

HUNTSVILLE AP  PTSUNNY   85  71  63 S9        30.10F HX  90
6HR MIN TEMP:  75; 6HR MAX TEMP:  86;

HUN NWS/UAH      N/A     84  69  58 S6          N/A
MERIDIANVILLE  PTSUNNY   86  64  48 S6        30.11S
REDSTONE ARSN  MOSUNNY   84  70  61 S9        30.11F
VINEMONT AP    FAIR      83  70  63 SE5       30.14S
$$

ALZ008>010-221900-
NORTHEAST ALABAMA

CITY           SKY/WX    TMP DP  RH WIND       PRES   REMARKS
ALBERTVILLE    MOSUNNY   81  73  78 S6        30.12S
CROSSVILLE       N/A     81 N/A N/A CALM        N/A
FORT PAYNE     PTSUNNY   81  66  61 W3        30.11F
SCOTTSBORO AP  MOSUNNY   84  70  61 SW3       30.11F
SCOTTSBORO HCN   N/A     84 N/A N/A MISG        N/A
VALLEY HEAD      N/A     81 N/A N/A MISG        N/A
$$

TNZ076-096-097-221900-
SOUTHEASTERN MIDDLE TENNESSEE

CITY           SKY/WX    TMP DP  RH WIND       PRES   REMARKS
FAYETTEVILLE   MOSUNNY   82  70  65 SE8       30.12S
TULLAHOMA      PTSUNNY   82  70  65 SW6       30.14S
WINCHESTER     MOSUNNY   84  72  65 VRB6      30.12F
$$

...SURROUNDING SITES...

CITY           SKY/WX    TMP DP  RH WIND       PRES   REMARKS
ATLANTA        PTSUNNY   79  69  71 NE3       30.13F
ANNISTON       PTSUNNY   82  69  64 SE7       30.11F
BIRMINGHAM     CLOUDY    83  70  64 VRB5      30.12F
CHATTANOOGA    PTSUNNY   85  67  54 CALM      30.12F
CORINTH        FAIR      86  72  62 CALM      30.08S HX  92
DALTON         PTSUNNY   81  72  74 N6        30.11F
GADSDEN        MOSUNNY   84  68  58 CALM      30.10S
GOLDEN TRNGL   PTSUNNY   82  72  69 CALM      30.09S
HALEYVILLE     FAIR      83  73  71 CALM      30.13F
JACKSON TN     SUNNY     88  68  51 S3        30.09S HX  91
LEWISBURG      FAIR      87  71  58 S6        30.10F HX  92
MEMPHIS        PTSUNNY   88  68  51 W7        30.09S HX  91
MURFREESBORO   PTSUNNY   87  70  57 SE5       30.10  HX  92
NASHVILLE      PTSUNNY   88  69  53 SW3       30.10F HX  92
OXFORD MS      FAIR      86  68  54 NE6       30.10S
ROME           PTSUNNY   83  69  62 VRB5      30.10F
SAVANNAH       MOSUNNY   88  75  66 SE6       30.09S HX  97
TUPELO         PTSUNNY   87  72  60 S7        30.08S HX  93
TUSCALOOSA     CLOUDY    82  74  76 CALM      30.08F
$$

...GULF COAST WEATHER...

CITY           SKY/WX    TMP DP  RH WIND       PRES   REMARKS
GULFPORT       SUNNY     91  69  48 S7        30.02S HX  96
PASCAGOULA     PTSUNNY   88  70  55 SW3       30.02F HX  93
MOBILE         TSTM      78  76  93 NE15      30.03F FOG
GULF SHORES    MOCLDY    83  75  75 S9        30.02F THUNDER HX  91
PENSACOLA      PTSUNNY   86  75  69 S14       30.03F HX  95
DESTIN         MOSUNNY   85  76  74 S8        30.05F HX  94
PANAMA CITY    MOSUNNY   85  75  72 S10       30.07F HX  92
APPALACHICOLA  SUNNY     87  75  67 SE9       30.06F HX  96
$$



USA.gov is the U.S. government's official web portal to all federal, state and local government web resources and services.